Regional Weather Roundup
Issued by NWS Newport/Morehead, NC

Current Version | Previous Version | Text Only | Print | Product List | Glossary Off
Versions: 1 2 3 4 5 6 7 8 9 10 11 12 13 14 15 16 17 18 19 20 21 22 23 24 25 26 27 28 29 30 31 32 33 34 35 36 37 38 39 40 41 42 43 44 45 46 47 48 49 50
000 ASUS42 KMHX 232226 RWRMHX WEATHER ROUNDUP FOR EASTERN NORTH CAROLINA NATIONAL WEATHER SERVICE NEWPORT/MOREHEAD CITY NC 600 PM EDT FRI JUN 23 2017 NOTE: "FAIR" INDICATES FEW OR NO CLOUDS BELOW 12,000 FEET WITH NO SIGNIFICANT WEATHER AND/OR OBSTRUCTIONS TO VISIBILITY NCZ015>017-031-032-045>047-102-103-232300- NORTH COAST CITY SKY/WX TMP DP RH WIND PRES REMARKS EDENTON MOSUNNY 90 76 62 SW12 29.87F HX 101 ELIZABETH CITY MOSUNNY 89 77 67 SW16G23 29.85F HX 101 KITTY HAWK CLEAR 86 76 72 S12G18 29.86F MANTEO SUNNY 85 77 77 SW21 29.88F $$ NCZ045>047-081-094-103-104-232300- CENTRAL COAST CITY SKY/WX TMP DP RH WIND PRES REMARKS FRISCO SUNNY 83 75 77 SW16G26 29.94F $$ NCZ095-097-098-100-101-232300- SOUTHERN COAST CITY SKY/WX TMP DP RH WIND PRES REMARKS BEAUFORT SUNNY 84 76 76 SW24G31 29.94F CEDAR ISLAND NOT AVBL JACKSONVILLE SUNNY 86 78 77 S10G23 29.91F PINEY ISLAND CLEAR N/A N/A N/A SW16G24 29.93F WILMINGTON MOSUNNY 86 75 69 S14 29.93F $$ NCZ011>013-027>030-043-044-078>080-089-090>093-098-232300- COASTAL PLAIN CITY SKY/WX TMP DP RH WIND PRES REMARKS AHOSKIE N/A 87 74 65 S3 29.84F CLINTON SUNNY 90 75 61 SW9 29.90F ELIZABETHTOWN NOT AVBL GOLDSBORO SUNNY 91 73 56 SW15G22 29.87F GREENVILLE SUNNY 90 72 55 SW13 29.89F HAVELOCK SUNNY 85 74 69 SW17G25 29.93F KENANSVILLE SUNNY 90 73 58 SW10 29.89F KINSTON MOSUNNY 91 72 52 SW14 29.89F NEW BERN MOSUNNY 87 77 72 S13 29.92F RICHLANDS PTSUNNY 88 78 72 S14 29.91F HX 101 ROCKY MOUNT MOSUNNY 88 74 63 S13G21 29.86F WASHINGTON MOSUNNY N/A N/A N/A S13G21 29.88F WHITEVILLE SUNNY 88 77 69 S10 29.92F HX 101 $$ AMZ130-135-150-152-154-156-158-170-250-252-270-ANZ085-086-088-633-658-670-232300- MARINE OBSERVATIONS STATION/POSITION TIME TEMP WIND PRES WAVE SWELL AIR SEA DIR/SP/G HT/PER HT/PER (UTC) (F) (DEG/KT/KT) (MB) (FT/S) (FT/S) CHESAPEAKE LIGHT NOT AVBL 64 E VA BEACH 2150 75 73 200/ 17/ 21 1011.5 3/ 4 2/10 DUCK 2200 85 64 200/ 16/ 19 1010.6 2 E DUCK NOT AVBL OREGON INLET 2200 81 82 200/ 20/ 24 1012.4 13E OREGON INLT 2148 72 N/A 4/ 5 2/ 8 HATTERAS CG 2200 81 80 220/ 13/ 19 1013.4 DIAMOND BUOY 2150 81 81 220/ 21/ 23 1013.8 4/ 4 2/ 8 CAPE LOOKOUT 2200 81 210/ 15/ 21 1013.8 BEAUFORT LAB 2200 82 79 210/ 14/ 20 1013.2 30 SE NEW RVR IN 2208 81 81 230/ 17/ 23 1014.5 30 SE NEW RVR IN 2213 81 N/A 5/ 5 27 SE WRIGHTSVLE 2208 80 80 210/ 16/ 25 1014.3 5 SE WRIGHTSVLE 2208 81 80 200/ 14/ 21 1014.1 225 S CAPE HAT 2150 81 82 200/ 12/ 14 1018.1 4/ 8 3/ 8 41 SE CHARLESTON 2210 81 81 200/ 17/ 21 1014.9 $$

USA.gov is the U.S. government's official web portal to all federal, state and local government web resources and services.